User: anonymous   Login
Location: Cronhütte
(48.9135°N, 9.6869°E)
Time: 09:04:10
(UTC+00:00)
Language:

Cosmos 1295 Rocket - Orbit

View from above orbital plane
View from above orbital plane
View from above satellite
View from above satellite

Ground track
Ground track

The orbit data is extracted from the following two-line orbital elements,

1 12682U 81077B   24196.85980590  .00000080  00000-0  63477-4 0  9997
2 12682  82.9145 242.6572 0032606 294.8186  64.9582 13.78765436158731
Epoch (UTC): 14 July 2024 20:38:07
Eccentricity: 0.0032606
inclination: 82.9145°
perigee height: 944 km
apogee height: 992 km
right ascension of ascending node: 242.6572°
argument of perigee: 294.8186°
revolutions per day: 13.78765436
mean anomaly at epoch: 64.9582°
orbit number at epoch: 15873

The dashed part of the orbit path shows where the satellite is in the earth's shadow,  

DLR